• Join FlightAware (Why Join?)
  • Login
  • US Flag 
11:01AM EST


 

Airport Tracker/Info


-or-


 

Live Flight TrackerFlight Track Log ✈ TRS351 ✈ 03-May-2012 ✈ KJAX - KATL

Flight Track Log - Related Links

Times and Time Zones

All times are in EDT time to prevent confusion due to time zone crossing. See the TRS351 flight status page for this flight to view local times or setup timezone preferences in your user account.

Time Position Orientation Groundspeed Altitude Reporting Facility
EDT Latitude Longitude Course Direction KTS MPH feet Rate Location/Type
10:45AM 30.5069 -81.6703 66° East 182 209 800  Level Jacksonville Center
10:46AM 30.5192 -81.6386 344° North 183 211 1,800 1,438 Climbing Jacksonville Center
10:47AM 30.5883 -81.6619 337° Northwest 261 300 3,100 1,700 Climbing Jacksonville Center
10:48AM 30.6597 -81.6972 334° Northwest 286 329 5,200 2,348 Climbing Jacksonville Center
10:48AM 30.6975 -81.7183 335° Northwest 299 344 6,700 2,362 Climbing Jacksonville Center
10:49AM 30.7772 -81.7611 335° Northwest 314 361 8,900 1,592 Climbing Jacksonville Center
10:51AM 30.8989 -81.8272 334° Northwest 378 435 10,600 1,490 Climbing Jacksonville Center
10:52AM 30.9953 -81.8819 334° Northwest 365 420 12,500 1,934 Climbing Jacksonville Center
10:53AM 31.0961 -81.9392 335° Northwest 377 434 14,500 2,132 Climbing Jacksonville Center
10:54AM 31.1967 -81.9939 336° Northwest 400 460 16,800 1,900 Climbing Jacksonville Center
10:55AM 31.3014 -82.0489 336° Northwest 400 460 18,300 1,800 Climbing Jacksonville Center
10:56AM 31.4103 -82.1064 337° Northwest 418 481 20,400 1,850 Climbing Jacksonville Center
10:57AM 31.5214 -82.1614 332° Northwest 430 495 22,000 1,800 Climbing Jacksonville Center
10:59AM 31.8017 -82.3356 331° Northwest 459 528 26,700 1,429 Climbing Atlanta Center
11:00AM 31.9089 -82.4044 331° Northwest 454 522 27,000 150 Climbing Atlanta Center
11:01AM 32.0164 -82.4761 319° Northwest 437 503 27,000  Level Atlanta Center
11:02AM 32.1114 -82.5725 317° Northwest 437 503 27,000  Level Atlanta Center
11:03AM 32.2022 -82.6717 317° Northwest 437 503 27,000  Level Atlanta Center
11:04AM 32.2931 -82.7708 317° Northwest 443 510 27,000  Level Atlanta Center
11:05AM 32.3839 -82.8706 316° Northwest 443 510 27,000  Level Atlanta Center
11:06AM 32.4703 -82.9703 318° Northwest 437 503 27,000  Level Atlanta Center
11:07AM 32.5631 -83.0703 316° Northwest 437 503 27,000  Level Atlanta Center
11:08AM 32.6514 -83.1706 316° Northwest 437 503 27,000  Level Atlanta Center
11:09AM 32.7419 -83.2733 317° Northwest 437 503 27,000 -800 Level Atlanta Center
11:10AM 32.8344 -83.3764 317° Northwest 437 503 25,400 -2,000 Descending Atlanta Center
11:11AM 32.9206 -83.4722 315° West 432 497 23,000 -2,450 Descending Atlanta Center
11:12AM 33.0044 -83.5708 317° Northwest 432 497 20,500 -2,450 Descending Atlanta Center
11:13AM 33.0778 -83.6519 316° Northwest 420 483 18,100 -2,450 Descending Atlanta Center
11:14AM 33.1572 -83.7436 315° West 405 466 15,600 -2,100 Descending Atlanta Center
11:15AM 33.2347 -83.8353 308° West 391 450 13,900 -1,350 Descending Atlanta Center
11:16AM 33.3017 -83.9369 308° West 386 444 12,900 -950 Descending Atlanta Center
11:17AM 33.3622 -84.0289 308° West 364 419 12,000 -450 Descending Atlanta Center
11:18AM 33.4247 -84.1258 309° West 343 395 12,000  Level Atlanta Center
11:19AM 33.4811 -84.2106 308° West 329 379 12,000 -50 Level Atlanta Center
11:20AM 33.5331 -84.2906 278° West 321 369 11,900 -750 Descending Atlanta Center
11:21AM 33.5433 -84.3753 272° West 257 296 10,500 -1,400 Descending Atlanta Center
11:22AM 33.5453 -84.4600 272° West 257 296 9,100 -1,777 Descending Atlanta Center
11:25AM 33.5500 -84.6500 270° West 232 267 4,400 -1,631 Descending Atlanta TRACON
11:26AM 33.5500 -84.7167 320° Northwest 221 254 3,500 -474 Descending Atlanta TRACON
11:27AM 33.5833 -84.7500 16° North 209 241 3,500  Level Atlanta TRACON
11:28AM 33.6333 -84.7333 90° East 203 234 3,500  Level Atlanta TRACON
11:29AM 33.6333 -84.6667 90° East 194 223 3,500 -50 Level Atlanta TRACON
11:30AM 33.6333 -84.6000 90° East 194 223 3,400 -571 Descending Atlanta TRACON
11:31AM 33.6333 -84.5333 90° East 186 214 2,300 -857 Descending Atlanta TRACON
11:32AM 33.6333 -84.4833 90° East 145 167 1,600 -700 Descending Atlanta TRACON